Simultaneous Nadir Overpasses (SNOs) Predictions

Prediction of SNOs between NOAA-15 and METOP-C Satellite Orbit:

Table of predicted SNOs for the next 14.0 days since TLE Epoch: 11/16/2019
Index Date (NOAA-15) Time (NOAA-15) Lat,Lon (NOAA-15) SZA (NOAA-15 ) Date (METOP-C) Time (METOP-C) Lat,Lon (METOP-C) SZA (METOP-C ) Distance(km) Time Diff (sec)
1 11/22/2019 02:04:44 -80.88, 2.88 77.33 11/22/2019 02:03:31 -80.88, 2.92 77.35 0.81 73
2 11/22/2019 02:55:19 80.88, 170.22 102.69 11/22/2019 02:54:12 80.88, 170.25 102.67 0.66 67
3 11/22/2019 03:45:47 -80.88, -22.52 77.32 11/22/2019 03:44:53 -80.87, -22.58 77.36 1.79 54
4 11/22/2019 04:36:22 80.88, 144.82 102.69 11/22/2019 04:35:34 80.87, 144.76 102.66 1.89 48
5 11/22/2019 05:26:49 -80.87, -47.55 77.29 11/22/2019 05:26:14 -80.88, -47.72 77.31 3.14 35
6 11/22/2019 06:17:24 80.87, 119.79 102.72 11/22/2019 06:16:55 80.88, 119.62 102.70 3.14 29
7 11/22/2019 07:07:52 -80.88, -72.94 77.28 11/22/2019 07:07:35 -80.89, -72.86 77.27 2.01 17
8 11/22/2019 07:58:27 80.88, 94.39 102.73 11/22/2019 07:58:16 80.89, 94.47 102.74 1.99 11
9 11/22/2019 08:48:55 -80.88, -98.34 77.28 11/22/2019 08:48:57 -80.88, -98.36 77.28 0.48 2
10 11/22/2019 09:39:30 80.89, 68.99 102.74 11/22/2019 09:39:38 80.88, 68.98 102.73 0.46 8
11 11/22/2019 10:29:58 -80.89,-123.73 77.27 11/22/2019 10:30:19 -80.87,-123.86 77.29 2.95 21
12 11/22/2019 11:20:33 80.89, 43.60 102.74 11/22/2019 11:21:00 80.87, 43.48 102.73 2.90 27
13 11/22/2019 12:11:01 -80.90,-149.12 77.26 11/22/2019 12:11:40 -80.88,-149.00 77.24 2.60 39
14 11/22/2019 13:01:36 80.90, 18.20 102.75 11/22/2019 13:02:21 80.88, 18.34 102.77 2.91 45
15 11/22/2019 13:52:03 -80.89,-174.16 77.23 11/22/2019 13:53:01 -80.89,-174.14 77.20 0.95 58
16 11/22/2019 14:42:38 80.89, -6.84 102.78 11/22/2019 14:43:42 80.90, -6.80 102.81 0.96 64




NCC Satellite Simultaneous Nadir Overpasses (SNOs) Prediction Service
